This demonstration page uses our WeatherBlox Daily Observations layout. Learn more.

Hourly Observations for August 29, 2016

Temp ( °F °C ) Dew Point ( °F °C ) Humidity (%) Winds ( mph kmh ) Pressure ( in mb ) Visibility ( mi km ) Precip ( " mm )
12:15 am 00:15 Mostly Cloudy 69 20.5 64 17.7 84 84 ESE 7 11 30.06 1018 10 16.09344 0 0
12:35 am 00:35 Mostly Cloudy 69 20.3 65 18.3 88 88 E 10 17 30.06 1018 10 16.09344 0 0
12:55 am 00:55 Cloudy 70 21 67 19.4 91 91 ESE 15 24 30.03 1017 10 16.09344 0 0
1:15 am 01:15 Mostly Cloudy 69 20.8 66 19.1 90 90 ESE 14 22 30.09 1019 10 16.09344 0 0
1:35 am 01:35 Clear with Nearby Thunderstorms 68 20 64 17.7 87 87 ESE 10 17 30.09 1019 10 16.09344 0 0
1:55 am 01:55 Clear 67 19.5 64 17.5 88 88 SE 9 15 30.09 1019 10 16.09344 0 0
2:15 am 02:15 Partly Cloudy 67 19.7 64 18 90 90 SE 10 17 30.09 1019 10 16.09344 0 0
2:35 am 02:35 Partly Cloudy 67 19.6 64 18 91 91 SE 8 13 30.09 1019 10 16.09344 0 0
2:55 am 02:55 Partly Cloudy 68 20.1 65 18.2 89 89 SE 14 22 30.09 1019 10 16.09344 0 0
3:15 am 03:15 Partly Cloudy 67 19.3 64 17.7 91 91 SE 10 17 30.09 1019 10 16.09344 0 0
3:35 am 03:35 Mostly Cloudy 66 18.8 63 17.2 90 90 SE 13 20 30.09 1019 10 16.09344 0 0
3:55 am 03:55 Partly Cloudy 65 18.5 62 16.8 90 90 SE 14 22 30.09 1019 10 16.09344 0 0
4:15 am 04:15 Mostly Cloudy 65 18.3 62 16.5 89 89 ESE 8 13 30.06 1018 10 16.09344 0 0
4:35 am 04:35 Mostly Cloudy with Light Drizzle 64 18 62 16.5 91 91 SSE 3 6 30.06 1018 10 16.09344 0 0
4:55 am 04:55 Clear 64 17.5 61 16.3 93 93 Calm 30.06 1018 10 16.09344 0 0
5:15 am 05:15 Clear 64 17.5 62 16.5 94 94 W 7 11 30.06 1018 10 16.09344 0 0
5:35 am 05:35 Clear 65 18.4 63 17.2 93 93 W 6 9 30.06 1018 10 16.09344 0 0
5:55 am 05:55 Clear 65 18.3 63 17 92 92 Calm 30.06 1018 10 16.09344 0 0
6:15 am 06:15 Clear 65 18.2 62 16.8 92 92 WSW 5 7 30.06 1018 10 16.09344 0 0
6:35 am 06:35 Clear 65 18.4 62 16.8 90 90 W 3 6 30.06 1018 10 16.09344 0 0
6:55 am 06:55 Clear 64 17.9 62 16.5 92 92 Calm 30.06 1018 10 16.09344 0 0
7:15 am 07:15 Partly Cloudy 64 18 63 17 94 94 Calm 30.06 1018 10 16.09344 0 0
7:35 am 07:35 Partly Cloudy 65 18.1 63 17 93 93 SE 3 6 30.09 1019 10 16.09344 0 0
7:55 am 07:55 Mostly Cloudy 65 18.2 63 17 93 93 Calm 30.09 1019 10 16.09344 0 0
8:15 am 08:15 Mostly Cloudy with Light Rain 65 18.5 64 17.5 94 94 ENE 3 6 30.09 1019 10 16.09344 0 0
8:35 am 08:35 Partly Cloudy with Light Drizzle 66 19.1 64 18 93 93 E 3 6 30.12 1020 10 16.09344 0 0
8:55 am 08:55 Sunny 69 20.3 64 17.7 85 85 Calm 30.12 1020 10 16.09344 0 0
9:15 am 09:15 Sunny 70 21 65 18.1 84 84 E 5 7 30.12 1020 10 16.09344 0 0
9:35 am 09:35 Sunny 71 21.6 65 18.1 81 81 SE 3 6 30.09 1019 10 16.09344 0 0
9:55 am 09:55 Sunny 72 22.2 65 18.2 78 78 SSE 7 11 30.09 1019 10 16.09344 0 0
10:15 am 10:15 Sunny 73 22.5 64 18 76 76 S 8 13 30.09 1019 10 16.09344 0 0
10:35 am 10:35 Sunny 74 23.3 63 17.3 69 69 SSE 8 13 30.09 1019 10 16.09344 0 0
10:55 am 10:55 Sunny 73 22.7 63 17.4 72 72 S 7 11 30.09 1019 10 16.09344 0 0
11:15 am 11:15 Sunny 73 23 64 17.6 72 72 SSE 7 11 30.12 1020 10 16.09344 0 0
11:35 am 11:35 Sunny 73 22.8 64 17.5 72 72 S 8 13 30.12 1020 10 16.09344 0 0
11:55 am 11:55 Sunny 73 22.9 64 17.8 73 73 SE 9 15 30.12 1020 10 16.09344 0 0
12:15 pm 12:15 Sunny 73 23 64 18 74 74 SE 9 15 30.09 1019 10 16.09344 0 0
12:35 pm 12:35 Sunny 73 22.9 65 18.2 75 75 SSE 10 17 30.09 1019 10 16.09344 0 0
12:55 pm 12:55 Sunny 73 23 65 18.3 75 75 SSE 9 15 30.09 1019 10 16.09344 0 0
1:15 pm 13:15 Partly Cloudy 73 22.9 65 18.3 75 75 S 5 7 30.12 1020 10 16.09344 0 0
1:35 pm 13:35 Partly Cloudy 73 22.7 65 18.1 75 75 S 3 6 30.12 1020 10 16.09344 0 0
1:55 pm 13:55 Mostly Cloudy with Light Rain 73 22.6 65 18.5 78 78 SW 3 6 30.12 1020 10 16.09344 0 0
2:15 pm 14:15 Partly Cloudy with Light Drizzle 73 23 66 18.8 77 77 Calm 30.12 1020 10 16.09344 0 0
2:35 pm 14:35 Partly Cloudy with Light Drizzle 74 23.2 66 19 77 77 WSW 3 6 30.12 1020 10 16.09344 0 0
2:55 pm 14:55 Partly Cloudy 75 23.9 66 18.7 73 73 SSW 5 7 30.09 1019 10 16.09344 0 0
3:15 pm 15:15 Partly Cloudy 76 24.2 66 19 73 73 SW 3 6 30.09 1019 10 16.09344 0 0
3:35 pm 15:35 Mostly Cloudy 75 24.1 66 18.7 72 72 Calm 30.09 1019 10 16.09344 0 0
3:55 pm 15:55 Mostly Cloudy 76 24.4 66 19.1 72 72 NNW 3 6 30.06 1018 10 16.09344 0 0
4:15 pm 16:15 Partly Cloudy 77 24.8 66 18.9 70 70 Calm 30.03 1017 10 16.09344 0 0
4:35 pm 16:35 Sunny 77 25.1 66 18.9 69 69 Calm 30.03 1017 10 16.09344 0 0
4:55 pm 16:55 Sunny 78 25.3 65 18.6 67 67 SSE 5 7 30.03 1017 10 16.09344 0 0
5:15 pm 17:15 Sunny 77 25.1 66 18.8 68 68 Calm 30.03 1017 10 16.09344 0 0
5:35 pm 17:35 Sunny 77 25.1 66 19 69 69 SSW 3 6 30.03 1017 10 16.09344 0 0
5:55 pm 17:55 Sunny 78 25.6 67 19.3 68 68 S 3 6 30.03 1017 10 16.09344 0 0
6:15 pm 18:15 Sunny 78 25.5 67 19.2 68 68 SW 6 9 30.03 1017 10 16.09344 0 0
6:35 pm 18:35 Partly Cloudy 78 25.3 67 19.2 69 69 S 3 6 30.03 1017 10 16.09344 0 0
6:55 pm 18:55 Partly Cloudy 77 25 67 19.4 71 71 SE 6 9 30.06 1018 10 16.09344 0 0
7:15 pm 19:15 Cloudy 76 24.7 67 19.7 74 74 Calm 30.09 1019 10 16.09344 0 0
7:35 pm 19:35 Cloudy 76 24.5 67 19.6 74 74 SE 3 6 30.06 1018 10 16.09344 0 0
7:55 pm 19:55 Cloudy 75 24.1 68 20 78 78 SE 5 7 30.09 1019 10 16.09344 0 0
8:15 pm 20:15 Mostly Cloudy 72 22.2 65 18.2 78 78 SSE 8 13 30.09 1019 10 16.09344 0 0
8:35 pm 20:35 Partly Cloudy 71 21.5 65 18.1 81 81 S 6 9 30.09 1019 10 16.09344 0 0
8:55 pm 20:55 Partly Cloudy 71 21.4 65 18.1 82 82 SW 3 6 30.09 1019 10 16.09344 0 0
9:15 pm 21:15 Partly Cloudy 70 21.1 65 18.2 84 84 S 3 6 30.12 1020 10 16.09344 0 0
9:35 pm 21:35 Mostly Cloudy with Light Rain 69 20.6 65 18.6 88 88 Calm 30.12 1020 10 16.09344 0 0
9:55 pm 21:55 Cloudy with Light Rain 69 20.5 66 18.7 89 89 Calm 30.12 1020 10 16.09344 0.01 0.254
10:15 pm 22:15 Cloudy with Light Rain 68 20.2 66 18.8 92 92 Calm 30.12 1020 10 16.09344 0 0
10:35 pm 22:35 Cloudy 69 20.3 66 18.9 92 92 Calm 30.12 1020 10 16.09344 0 0
10:55 pm 22:55 Partly Cloudy 68 20.2 66 19 93 93 SW 5 7 30.12 1020 10 16.09344 0 0
11:15 pm 23:15 Clear 69 20.3 66 19 92 92 Calm 30.12 1020 10 16.09344 0 0
11:35 pm 23:35 Partly Cloudy with Light Rain 69 20.5 66 19.1 92 92 Calm 30.15 1021 10 16.09344 0 0
11:55 pm 23:55 Cloudy with Light Rain 69 20.3 66 19.1 93 93 Calm 30.15 1021 7 11.265408 0 0

Powered by AerisWeather